Regional Weather Roundup
Issued by NWS

Home | Current Version | Previous Version | Text Only | Print | Product List | Glossary Off
Versions: 1 2 3 4 5 6 7 8 9 10 11 12 13 14 15 16 17 18 19 20 21 22 23 24 25 26 27 28 29 30 31 32 33 34 35 36 37 38 39 40 41 42 43 44 45 46 47 48 49 50

000
ASUS43 KBIS 300110
RWRND

NORTH DAKOTA REGIONAL WEATHER ROUNDUP
NATIONAL WEATHER SERVICE BISMARCK ND
800 PM CDT MON AUG 29 2016

NOTE: "FAIR" INDICATES FEW OR NO CLOUDS BELOW 12,000 FEET WITH NO
SIGNIFICANT WEATHER AND/OR OBSTRUCTIONS TO VISIBILITY.


NDZ001>003-009>011-017-300200-
NORTHWEST NORTH DAKOTA

CITY           SKY/WX    TMP DP  RH WIND       PRES   REMARKS
WILLISTON      CLEAR     80  39  23 E3        30.21F
MINOT          CLEAR     74  46  36 NE3       30.22S
MINOT AFB      CLEAR     75  41  29 N3        30.21S
$$

NDZ018>021-031>035-040>046-300200-
SOUTHWEST NORTH DAKOTA

CITY           SKY/WX    TMP DP  RH WIND       PRES   REMARKS
BISMARCK       CLEAR     75  48  38 NE7       30.22S
DICKINSON      CLEAR     73  43  33 E9        30.22S
GARRISON         N/A     74  46  36 NE3       30.22F
HETTINGER ARPT CLEAR     76  50  40 E8        30.24F
$$

NDZ004>008-012>016-024-026-027-054-300200-
NORTHEAST NORTH DAKOTA

CITY           SKY/WX    TMP DP  RH WIND       PRES   REMARKS
GRAND FORKS    PTCLDY    69  53  56 NW7       30.16S
GRND FRKS AFB  CLEAR     69  52  54 NW6       30.18S
DEVILS LAKE    CLEAR     68  52  56 N7        30.21S
$$

NDZ022-023-025-028>030-036>039-047>053-300200-
SOUTHEAST NORTH DAKOTA

CITY           SKY/WX    TMP DP  RH WIND       PRES   REMARKS
FARGO          CLEAR     74  61  63 N8        30.14S
JAMESTOWN      CLEAR     69  57  65 N7        30.20S
$$





USA.gov is the U.S. government's official web portal to all federal, state and local government web resources and services.